GFSNE_700_temp_015.txt.gz
Temp
-9 -9 -9 -9 -9 -10 -10 -10 -10 -9 -8 -7 -7 -8 -8 -8 -8 -8 -8 -8 -7 -6 -5 -4 -4 -3 -3 -3 -3 -2 -2 -1 -1 -1 -1 -1 -1 -1
-10 -10 -10 -10 -10 -11 -11 -11 -11 -11 -10 -10 -9 -9 -9 -9 -9 -8 -9 -9 -9 -7 -7 -6 -6 -6 -5 -3 -3 -3 -3 -2 -2 -2 -1 -1 -1 -2
-10 -11 -10 -11 -11 -12 -12 -12 -12 -12 -12 -11 -12 -11 -11 -10 -10 -10 -9 -9 -9 -8 -7 -7 -7 -7 -5 -4 -4 -3 -3 -2 -2 -3 -2 -1 -1 -1
-11 -12 -12 -13 -13 -13 -13 -13 -13 -13 -13 -13 -13 -13 -12 -12 -11 -11 -10 -10 -9 -9 -8 -7 -7 -7 -7 -6 -4 -3 -3 -3 -2 -2 -3 -2 -2 -2
-13 -13 -13 -13 -13 -13 -14 -14 -14 -14 -14 -13 -13 -13 -13 -13 -13 -12 -12 -11 -10 -10 -9 -9 -8 -7 -7 -7 -6 -5 -4 -3 -2 -3 -3 -2 -3 -2
-14 -14 -14 -14 -14 -14 -14 -14 -14 -14 -14 -14 -14 -14 -14 -13 -13 -13 -12 -12 -11 -11 -10 -10 -9 -9 -8 -7 -7 -5 -5 -4 -3 -3 -3 -3 -3 -3
-14 -14 -14 -14 -14 -14 -14 -14 -14 -14 -14 -14 -14 -14 -13 -13 -14 -13 -13 -12 -12 -11 -11 -10 -10 -9 -9 -8 -8 -7 -6 -5 -5 -4 -3 -3 -3 -3
-14 -14 -14 -14 -14 -14 -14 -14 -15 -15 -15 -15 -15 -14 -14 -14 -14 -14 -14 -13 -12 -11 -11 -11 -11 -10 -9 -9 -9 -8 -8 -7 -6 -5 -5 -4 -3 -3
-14 -14 -14 -14 -14 -14 -15 -15 -15 -15 -16 -16 -15 -15 -15 -15 -14 -14 -14 -14 -13 -12 -12 -11 -11 -11 -11 -11 -10 -9 -9 -8 -7 -7 -5 -5 -4 -4
-14 -14 -15 -15 -14 -14 -14 -14 -14 -15 -15 -15 -16 -16 -15 -15 -15 -15 -15 -14 -13 -12 -13 -12 -12 -11 -11 -11 -11 -10 -10 -9 -9 -8 -7 -6 -5 -4
-15 -15 -15 -15 -15 -15 -15 -15 -14 -14 -15 -15 -15 -16 -15 -15 -15 -15 -15 -14 -14 -14 -14 -13 -12 -12 -12 -11 -11 -11 -11 -10 -10 -9 -9 -8 -7 -6
-15 -15 -15 -15 -15 -15 -15 -15 -15 -15 -15 -15 -15 -15 -16 -15 -15 -15 -15 -14 -14 -14 -14 -13 -13 -13 -13 -12 -12 -12 -11 -11 -11 -10 -10 -9 -8 -8
-15 -15 -15 -15 -15 -15 -16 -15 -15 -15 -15 -15 -15 -15 -16 -16 -16 -15 -15 -15 -15 -14 -14 -14 -14 -14 -13 -12 -12 -12 -13 -12 -11 -11 -11 -10 -10 -9
-15 -15 -15 -15 -16 -16 -15 -15 -15 -15 -15 -15 -15 -15 -15 -15 -16 -16 -16 -16 -16 -16 -15 -15 -14 -14 -14 -13 -12 -12 -12 -12 -12 -11 -11 -11 -10 -10
-15 -15 -15 -16 -16 -17 -17 -16 -16 -15 -15 -15 -15 -15 -16 -16 -16 -15 -16 -16 -16 -16 -16 -16 -15 -15 -15 -14 -13 -13 -13 -13 -12 -12 -11 -10 -10 -10
-15 -15 -16 -16 -16 -17 -17 -17 -16 -15 -15 -15 -14 -14 -15 -16 -16 -16 -16 -16 -16 -16 -16 -16 -16 -15 -15 -14 -14 -13 -14 -13 -12 -12 -11 -11 -10 -10
-15 -15 -16 -16 -16 -16 -16 -16 -16 -15 -15 -14 -14 -14 -15 -16 -16 -16 -16 -16 -16 -16 -16 -16 -16 -16 -15 -15 -14 -14 -14 -13 -12 -12 -11 -10 -10 -10
-15 -15 -15 -15 -15 -16 -16 -16 -15 -15 -15 -14 -15 -16 -16 -16 -16 -16 -17 -17 -17 -16 -16 -16 -16 -16 -16 -15 -14 -14 -14 -13 -13 -12 -11 -11 -10 -10
-15 -15 -15 -15 -15 -15 -15 -15 -15 -15 -15 -15 -16 -16 -16 -16 -16 -16 -16 -16 -16 -16 -16 -16 -16 -16 -16 -15 -15 -14 -14 -14 -13 -12 -12 -11 -11 -11
-15 -15 -15 -15 -15 -15 -15 -15 -15 -15 -16 -16 -16 -16 -16 -16 -16 -16 -16 -16 -16 -16 -16 -16 -16 -15 -15 -15 -15 -14 -14 -14 -14 -13 -12 -12 -12 -12
-15 -15 -15 -15 -15 -15 -15 -14 -15 -15 -15 -16 -16 -16 -16 -16 -16 -16 -16 -16 -16 -16 -16 -16 -16 -16 -16 -16 -15 -15 -14 -14 -14 -13 -13 -13 -12 -12
-15 -15 -15 -15 -15 -15 -15 -15 -15 -15 -15 -15 -16 -16 -16 -16 -16 -16 -16 -16 -16 -16 -16 -16 -16 -16 -16 -15 -15 -15 -15 -14 -14 -14 -14 -13 -13 -12
-16 -15 -15 -15 -15 -15 -15 -15 -15 -15 -15 -15 -15 -16 -16 -16 -16 -16 -16 -16 -16 -16 -17 -17 -16 -16 -16 -16 -15 -15 -15 -14 -14 -14 -14 -14 -13 -13

GFSNE_700_temp_021.txt.gz
Temp
-9 -9 -9 -9 -9 -9 -9 -10 -10 -9 -9 -9 -8 -8 -7 -7 -6 -6 -6 -7 -7 -7 -7 -6 -6 -6 -5 -4 -4 -3 -3 -3 -2 -0 -1 -2 -1 -0
-10 -10 -9 -10 -10 -11 -11 -11 -11 -11 -10 -10 -10 -9 -8 -8 -8 -8 -8 -8 -8 -8 -8 -7 -7 -7 -6 -5 -4 -4 -3 -3 -4 -2 -0 -2 -2 -1
-11 -12 -12 -13 -13 -13 -13 -12 -12 -12 -12 -11 -11 -11 -10 -10 -10 -9 -9 -8 -8 -8 -9 -8 -8 -8 -8 -7 -6 -5 -4 -4 -3 -3 -3 -2 -1 -1
-12 -13 -13 -13 -13 -13 -13 -13 -13 -13 -14 -13 -12 -12 -12 -11 -11 -11 -11 -10 -10 -9 -10 -10 -9 -9 -9 -8 -7 -6 -5 -5 -4 -3 -3 -3 -2 -1
-14 -13 -13 -13 -13 -13 -13 -13 -13 -13 -14 -14 -13 -13 -13 -12 -12 -12 -12 -12 -12 -11 -11 -11 -10 -10 -9 -9 -8 -8 -7 -6 -5 -5 -3 -3 -3 -3
-14 -14 -14 -14 -14 -14 -14 -14 -14 -14 -14 -14 -13 -13 -13 -13 -13 -13 -13 -13 -12 -12 -12 -11 -11 -11 -10 -10 -9 -8 -9 -7 -7 -7 -5 -4 -3 -3
-14 -15 -15 -15 -15 -15 -15 -14 -14 -14 -14 -14 -14 -13 -13 -14 -13 -13 -13 -13 -13 -12 -12 -12 -12 -12 -11 -10 -10 -9 -9 -9 -8 -8 -7 -6 -6 -6
-15 -15 -15 -15 -15 -15 -15 -15 -14 -14 -14 -15 -15 -14 -14 -14 -14 -14 -14 -14 -13 -14 -13 -12 -13 -12 -12 -11 -11 -11 -10 -9 -9 -9 -8 -7 -7 -7
-15 -15 -15 -15 -15 -15 -15 -15 -15 -15 -15 -15 -15 -14 -14 -14 -14 -14 -14 -14 -14 -14 -14 -13 -13 -13 -12 -12 -12 -11 -11 -10 -10 -9 -9 -9 -8 -7
-16 -16 -15 -15 -15 -16 -15 -15 -15 -15 -15 -15 -15 -15 -15 -15 -15 -15 -15 -14 -14 -14 -15 -13 -14 -13 -13 -13 -12 -12 -11 -11 -10 -10 -9 -9 -9 -8
-16 -16 -16 -16 -16 -16 -16 -15 -15 -15 -16 -15 -15 -15 -15 -15 -16 -16 -15 -15 -15 -15 -15 -15 -15 -14 -14 -13 -13 -12 -12 -12 -11 -11 -10 -10 -9 -9
-16 -16 -16 -16 -16 -16 -16 -16 -16 -16 -16 -16 -15 -15 -15 -15 -15 -16 -16 -16 -16 -16 -15 -16 -16 -15 -14 -14 -14 -13 -13 -12 -12 -12 -12 -11 -10 -9
-16 -16 -16 -16 -16 -16 -16 -16 -16 -17 -17 -16 -16 -15 -15 -15 -16 -16 -16 -16 -16 -16 -16 -16 -16 -16 -16 -15 -14 -14 -13 -13 -13 -13 -12 -12 -12 -11
-17 -17 -16 -16 -16 -16 -16 -16 -17 -17 -16 -16 -16 -15 -15 -15 -15 -16 -16 -16 -16 -16 -17 -17 -17 -17 -16 -16 -15 -15 -14 -13 -13 -14 -13 -13 -12 -12
-17 -17 -16 -16 -16 -16 -16 -16 -16 -16 -16 -16 -15 -15 -15 -15 -15 -15 -16 -16 -16 -16 -17 -17 -17 -17 -17 -16 -15 -15 -15 -14 -14 -14 -14 -14 -13 -12
-17 -17 -16 -16 -16 -16 -16 -16 -16 -16 -16 -15 -15 -15 -15 -15 -15 -16 -16 -17 -17 -16 -16 -17 -17 -17 -17 -17 -16 -15 -15 -15 -15 -15 -14 -14 -13 -13
-17 -17 -16 -16 -16 -16 -16 -16 -16 -16 -16 -16 -16 -15 -15 -15 -15 -16 -16 -16 -17 -17 -17 -17 -17 -17 -17 -17 -16 -16 -15 -15 -15 -15 -14 -14 -14 -13
-17 -17 -16 -16 -16 -16 -16 -15 -16 -16 -16 -16 -16 -16 -16 -15 -15 -16 -16 -16 -16 -17 -17 -17 -17 -17 -17 -17 -16 -16 -16 -15 -15 -14 -14 -14 -14 -14
-17 -17 -17 -16 -16 -16 -15 -15 -15 -16 -16 -16 -16 -17 -16 -16 -16 -16 -16 -16 -16 -16 -16 -16 -16 -16 -16 -16 -16 -16 -16 -16 -15 -15 -14 -14 -15 -14
-17 -17 -17 -16 -16 -16 -15 -15 -15 -16 -16 -16 -17 -17 -17 -17 -16 -16 -16 -16 -16 -16 -16 -16 -16 -16 -16 -16 -16 -16 -16 -16 -16 -15 -15 -15 -14 -14
-17 -17 -17 -16 -16 -16 -16 -15 -15 -15 -15 -16 -16 -16 -16 -16 -16 -16 -16 -17 -17 -17 -16 -16 -16 -16 -16 -16 -16 -16 -16 -16 -15 -15 -15 -15 -14 -14
-17 -17 -17 -16 -16 -16 -16 -16 -16 -16 -16 -16 -15 -15 -16 -16 -16 -16 -16 -16 -16 -16 -16 -17 -16 -16 -16 -16 -16 -16 -15 -15 -15 -15 -15 -15 -14 -14
-17 -17 -17 -17 -17 -17 -16 -16 -16 -16 -16 -16 -16 -15 -15 -16 -16 -16 -16 -16 -16 -16 -16 -17 -17 -17 -16 -16 -16 -16 -15 -15 -15 -15 -14 -14 -14 -14

GFSNE_700_temp_024.txt.gz
Temp
-10 -10 -10 -10 -10 -10 -10 -10 -10 -10 -10 -10 -10 -10 -9 -9 -8 -8 -7 -7 -6 -6 -5 -5 -5 -5 -5 -5 -5 -5 -4 -3 -3 -3 -3 -2 -2 -0
-10 -10 -10 -10 -10 -10 -10 -10 -11 -11 -10 -10 -10 -11 -10 -9 -8 -8 -8 -7 -7 -6 -6 -6 -6 -6 -6 -5 -5 -5 -5 -4 -3 -3 -4 -3 -2 -1
-12 -12 -12 -12 -12 -13 -13 -14 -13 -13 -12 -11 -11 -10 -9 -9 -9 -9 -9 -8 -8 -7 -7 -7 -7 -7 -7 -7 -6 -6 -5 -5 -4 -3 -3 -4 -3 -2
-13 -13 -13 -14 -13 -13 -13 -13 -13 -14 -15 -14 -12 -12 -11 -11 -11 -10 -10 -9 -9 -9 -8 -7 -8 -9 -8 -8 -7 -7 -6 -6 -5 -4 -3 -3 -4 -3
-14 -14 -14 -14 -14 -13 -13 -13 -13 -13 -14 -14 -13 -13 -13 -12 -12 -11 -11 -11 -11 -10 -10 -10 -9 -10 -10 -9 -8 -7 -7 -6 -5 -4 -4 -4 -4 -4
-14 -14 -14 -14 -14 -14 -14 -14 -14 -14 -14 -14 -14 -13 -14 -13 -13 -13 -12 -12 -12 -12 -12 -11 -11 -10 -10 -10 -9 -8 -7 -7 -7 -6 -5 -5 -4 -4
-15 -15 -15 -15 -15 -15 -15 -15 -15 -15 -15 -14 -14 -14 -14 -14 -14 -13 -13 -13 -13 -13 -12 -12 -12 -11 -11 -11 -11 -10 -9 -8 -8 -7 -6 -6 -5 -5
-15 -15 -15 -15 -15 -15 -15 -15 -15 -15 -15 -15 -15 -14 -14 -14 -14 -14 -14 -14 -13 -13 -14 -13 -13 -12 -12 -11 -11 -11 -10 -10 -9 -8 -7 -7 -6 -6
-16 -16 -16 -16 -16 -15 -15 -15 -15 -15 -16 -16 -15 -15 -15 -15 -15 -15 -15 -15 -14 -14 -14 -13 -13 -13 -12 -12 -12 -11 -11 -11 -10 -10 -9 -8 -7 -7
-16 -16 -16 -16 -16 -16 -16 -15 -16 -15 -16 -16 -16 -15 -15 -15 -16 -15 -15 -15 -15 -14 -15 -14 -14 -13 -13 -13 -12 -12 -12 -11 -11 -11 -10 -9 -9 -8
-16 -16 -16 -16 -16 -16 -16 -16 -16 -15 -16 -16 -16 -16 -16 -15 -15 -16 -16 -16 -15 -15 -15 -15 -15 -14 -14 -13 -13 -13 -12 -12 -12 -11 -11 -10 -10 -9
-17 -17 -17 -17 -17 -17 -16 -16 -16 -16 -16 -17 -17 -17 -16 -16 -16 -16 -16 -16 -16 -16 -15 -17 -17 -16 -15 -14 -14 -14 -13 -13 -12 -12 -12 -11 -11 -10
-17 -17 -17 -17 -17 -17 -16 -16 -16 -16 -17 -17 -17 -17 -16 -16 -15 -15 -16 -16 -16 -16 -16 -18 -18 -17 -17 -16 -16 -14 -14 -13 -13 -12 -12 -12 -12 -11
-18 -18 -17 -17 -17 -16 -16 -16 -16 -17 -17 -17 -16 -16 -16 -16 -15 -15 -16 -16 -16 -16 -17 -17 -18 -18 -18 -17 -17 -15 -15 -14 -14 -13 -12 -12 -12 -12
-18 -18 -17 -17 -17 -16 -16 -16 -16 -17 -16 -16 -16 -16 -15 -15 -15 -15 -16 -16 -16 -17 -17 -17 -17 -17 -18 -17 -17 -16 -16 -15 -14 -14 -13 -13 -13 -13
-18 -18 -17 -17 -17 -16 -16 -16 -16 -17 -16 -16 -16 -16 -16 -15 -15 -15 -16 -16 -17 -17 -17 -17 -17 -17 -17 -17 -17 -16 -17 -16 -15 -14 -14 -15 -14 -13
-18 -17 -17 -17 -17 -17 -16 -16 -16 -16 -16 -16 -16 -16 -16 -16 -16 -15 -16 -16 -17 -17 -17 -17 -17 -17 -17 -17 -17 -17 -17 -16 -16 -15 -14 -15 -14 -14
-18 -17 -17 -17 -17 -17 -17 -16 -16 -16 -16 -16 -17 -16 -16 -16 -16 -16 -16 -16 -16 -16 -17 -17 -17 -17 -17 -17 -17 -17 -17 -17 -17 -16 -15 -15 -15 -14
-18 -17 -17 -17 -17 -16 -16 -16 -16 -16 -16 -16 -16 -16 -16 -16 -16 -16 -16 -16 -16 -16 -16 -16 -16 -17 -16 -17 -16 -16 -16 -17 -17 -16 -15 -15 -15 -15
-18 -17 -17 -17 -17 -16 -16 -16 -16 -15 -16 -16 -16 -16 -16 -16 -16 -16 -16 -16 -16 -16 -16 -16 -16 -17 -16 -16 -16 -16 -16 -16 -16 -16 -15 -15 -15 -15
-17 -17 -17 -17 -17 -16 -16 -16 -15 -15 -15 -15 -15 -15 -15 -16 -16 -16 -16 -16 -16 -16 -16 -16 -17 -17 -16 -16 -16 -16 -16 -16 -16 -16 -16 -15 -15 -15
-17 -17 -17 -17 -17 -17 -16 -16 -16 -16 -16 -15 -15 -15 -15 -15 -16 -16 -16 -16 -16 -16 -16 -16 -16 -17 -17 -16 -16 -16 -16 -16 -16 -16 -16 -15 -15 -15
-17 -17 -17 -17 -17 -17 -16 -16 -16 -16 -16 -16 -16 -16 -16 -15 -16 -16 -16 -16 -16 -16 -16 -16 -16 -17 -17 -16 -16 -16 -16 -16 -15 -15 -15 -15 -15 -15

GFSNE_700_temp_027.txt.gz
Temp
-10 -10 -10 -10 -10 -10 -10 -10 -10 -10 -9 -9 -9 -9 -9 -10 -11 -10 -8 -8 -7 -6 -6 -6 -5 -5 -5 -4 -4 -4 -4 -3 -3 -3 -3 -2 -2 -2
-12 -12 -12 -12 -12 -12 -11 -11 -11 -11 -10 -11 -10 -10 -10 -10 -10 -11 -9 -8 -8 -8 -7 -7 -7 -6 -5 -5 -5 -4 -4 -4 -3 -3 -3 -3 -3 -2
-12 -12 -12 -13 -13 -14 -14 -14 -14 -14 -13 -11 -12 -12 -12 -12 -12 -11 -10 -10 -9 -8 -8 -7 -7 -6 -6 -6 -5 -5 -4 -4 -4 -3 -3 -3 -3 -3
-15 -15 -15 -16 -14 -14 -14 -14 -15 -16 -15 -15 -15 -14 -12 -12 -12 -12 -11 -11 -11 -10 -9 -8 -7 -7 -7 -7 -6 -6 -6 -5 -5 -5 -4 -3 -3 -4
-15 -15 -15 -14 -14 -14 -14 -14 -15 -16 -16 -15 -15 -15 -15 -14 -13 -13 -13 -13 -12 -12 -11 -11 -10 -9 -8 -8 -7 -7 -6 -6 -5 -6 -5 -5 -4 -4
-15 -15 -15 -15 -15 -15 -15 -15 -15 -15 -15 -15 -14 -14 -16 -16 -16 -16 -15 -15 -14 -14 -15 -13 -12 -10 -9 -8 -9 -8 -8 -7 -7 -7 -6 -6 -5 -5
-15 -15 -15 -15 -15 -15 -15 -15 -15 -15 -15 -15 -15 -15 -16 -15 -14 -15 -15 -15 -14 -13 -13 -13 -12 -12 -11 -11 -10 -10 -9 -8 -8 -7 -7 -7 -6 -5
-16 -16 -16 -16 -16 -15 -15 -15 -15 -16 -15 -15 -15 -14 -15 -15 -14 -15 -15 -15 -14 -15 -14 -13 -13 -12 -12 -11 -11 -10 -10 -9 -9 -8 -8 -7 -7 -6
-16 -17 -17 -17 -17 -16 -16 -16 -16 -15 -16 -15 -15 -15 -15 -15 -15 -15 -15 -15 -15 -15 -15 -14 -14 -13 -13 -12 -12 -12 -11 -10 -10 -10 -9 -9 -8 -7
-17 -17 -17 -17 -17 -17 -16 -16 -16 -16 -16 -16 -16 -15 -16 -16 -16 -15 -15 -15 -15 -14 -15 -14 -14 -14 -14 -13 -12 -12 -12 -11 -11 -11 -10 -10 -9 -9
-17 -17 -17 -17 -17 -17 -17 -17 -17 -16 -16 -16 -16 -16 -16 -17 -17 -17 -16 -16 -15 -15 -15 -15 -15 -15 -15 -14 -13 -13 -12 -12 -12 -11 -11 -11 -10 -10
-17 -18 -18 -18 -18 -18 -18 -17 -17 -17 -17 -17 -17 -17 -17 -16 -17 -16 -16 -16 -15 -15 -15 -17 -17 -17 -16 -16 -15 -14 -13 -13 -13 -12 -12 -11 -11 -11
-18 -18 -18 -19 -18 -18 -18 -17 -17 -17 -17 -17 -17 -17 -17 -17 -16 -16 -16 -16 -15 -15 -16 -17 -17 -17 -17 -17 -17 -16 -16 -14 -13 -13 -12 -12 -12 -11
-18 -18 -18 -18 -18 -18 -17 -17 -17 -17 -17 -17 -17 -17 -17 -17 -17 -16 -16 -16 -17 -17 -17 -17 -17 -17 -17 -17 -17 -17 -16 -16 -16 -14 -13 -13 -12 -12
-19 -19 -18 -18 -18 -18 -17 -17 -17 -17 -17 -17 -17 -16 -16 -16 -16 -16 -16 -16 -16 -17 -17 -17 -17 -17 -17 -17 -17 -17 -17 -16 -16 -16 -14 -13 -13 -13
-18 -18 -18 -18 -18 -18 -18 -17 -17 -17 -17 -17 -17 -17 -16 -16 -16 -16 -16 -16 -17 -17 -17 -17 -17 -17 -17 -17 -17 -17 -17 -16 -16 -16 -15 -14 -14 -13
-18 -18 -18 -18 -18 -18 -18 -17 -17 -17 -17 -17 -17 -17 -17 -16 -16 -16 -16 -16 -16 -17 -17 -17 -17 -17 -17 -17 -17 -17 -17 -17 -16 -16 -16 -15 -15 -15
-18 -18 -18 -18 -18 -17 -17 -17 -17 -17 -17 -17 -17 -17 -17 -16 -16 -16 -16 -16 -16 -16 -16 -17 -17 -17 -17 -17 -17 -17 -17 -16 -16 -16 -16 -16 -15 -15
-18 -18 -18 -18 -17 -17 -17 -17 -17 -17 -16 -17 -17 -17 -16 -16 -16 -16 -16 -16 -16 -16 -17 -16 -17 -17 -16 -16 -16 -16 -16 -16 -16 -16 -16 -16 -16 -15
-18 -18 -18 -17 -17 -17 -17 -17 -17 -16 -16 -16 -16 -16 -16 -16 -16 -16 -16 -16 -16 -16 -17 -17 -17 -17 -17 -16 -16 -16 -16 -16 -16 -16 -17 -17 -16 -16
-18 -18 -17 -17 -17 -17 -17 -17 -16 -16 -16 -16 -16 -16 -15 -16 -16 -16 -16 -16 -16 -16 -16 -16 -17 -17 -17 -16 -16 -16 -16 -16 -16 -16 -16 -17 -16 -16
-18 -18 -17 -17 -17 -18 -17 -16 -16 -16 -16 -16 -16 -16 -15 -15 -15 -15 -16 -16 -16 -16 -16 -16 -16 -17 -17 -17 -16 -16 -16 -16 -16 -16 -16 -16 -16 -16
-18 -18 -17 -17 -17 -18 -17 -17 -16 -16 -16 -16 -16 -16 -16 -16 -16 -16 -16 -16 -16 -16 -16 -16 -16 -16 -17 -17 -17 -16 -16 -16 -16 -16 -16 -16 -16 -16

GFSNE_700_temp_030.txt.gz
Temp
-12 -12 -12 -12 -11 -11 -11 -11 -11 -11 -10 -10 -10 -9 -8 -8 -9 -8 -8 -8 -9 -9 -7 -7 -6 -6 -5 -5 -5 -4 -4 -4 -4 -3 -3 -3 -3 -2
-12 -12 -12 -13 -13 -13 -13 -13 -13 -13 -12 -12 -11 -11 -10 -10 -10 -9 -10 -10 -10 -9 -8 -8 -8 -7 -6 -5 -5 -5 -5 -4 -4 -4 -3 -3 -3 -3
-14 -14 -14 -15 -14 -14 -14 -14 -14 -14 -14 -13 -13 -12 -11 -11 -11 -11 -11 -11 -11 -10 -10 -9 -9 -9 -8 -7 -7 -6 -6 -5 -4 -4 -4 -3 -3 -3
-15 -15 -15 -15 -15 -15 -15 -15 -15 -15 -15 -14 -15 -15 -14 -13 -13 -13 -13 -12 -13 -12 -10 -10 -9 -8 -8 -8 -8 -7 -6 -6 -6 -5 -4 -4 -3 -3
-16 -15 -15 -15 -15 -15 -15 -15 -15 -15 -15 -15 -14 -15 -15 -14 -14 -14 -14 -13 -13 -13 -12 -12 -11 -10 -9 -8 -8 -8 -7 -6 -5 -5 -5 -4 -4 -4
-15 -16 -16 -16 -16 -16 -15 -16 -16 -16 -16 -15 -15 -15 -15 -15 -15 -15 -14 -14 -14 -14 -14 -14 -12 -11 -10 -9 -8 -8 -8 -8 -7 -6 -6 -6 -5 -4
-16 -16 -16 -16 -17 -17 -17 -16 -16 -16 -16 -16 -15 -15 -15 -15 -16 -15 -15 -15 -15 -14 -14 -13 -13 -13 -13 -12 -11 -10 -9 -9 -8 -7 -7 -6 -6 -5
-16 -16 -16 -17 -17 -18 -18 -17 -16 -16 -16 -16 -16 -15 -15 -15 -16 -16 -16 -16 -15 -16 -16 -15 -15 -14 -13 -13 -13 -12 -11 -10 -9 -9 -8 -8 -7 -7
-17 -17 -17 -17 -17 -17 -17 -17 -17 -16 -16 -16 -16 -16 -16 -16 -16 -15 -15 -15 -15 -15 -15 -15 -14 -14 -14 -13 -13 -13 -12 -12 -11 -10 -10 -9 -9 -8
-17 -17 -18 -17 -18 -18 -18 -17 -17 -17 -17 -17 -17 -16 -16 -16 -16 -16 -16 -16 -15 -15 -15 -15 -15 -14 -15 -14 -14 -13 -13 -12 -12 -12 -11 -10 -10 -9
-18 -18 -18 -18 -18 -18 -18 -17 -17 -17 -18 -18 -17 -17 -16 -16 -17 -17 -16 -17 -16 -16 -16 -17 -16 -16 -16 -15 -15 -14 -13 -13 -12 -13 -12 -11 -11 -11
-18 -18 -18 -19 -19 -19 -19 -18 -18 -18 -18 -17 -17 -17 -17 -17 -17 -17 -17 -17 -16 -16 -16 -17 -16 -17 -16 -16 -16 -16 -15 -14 -13 -13 -13 -12 -12 -11
-19 -19 -19 -19 -19 -19 -19 -19 -18 -18 -17 -17 -17 -17 -17 -17 -17 -17 -17 -17 -16 -16 -16 -16 -16 -16 -17 -17 -17 -17 -17 -16 -16 -15 -14 -13 -12 -12
-19 -19 -19 -19 -19 -19 -19 -18 -18 -18 -17 -17 -17 -17 -17 -17 -17 -17 -17 -16 -16 -16 -17 -17 -16 -17 -17 -17 -17 -17 -17 -17 -17 -16 -15 -14 -13 -12
-19 -19 -19 -19 -19 -19 -19 -18 -18 -18 -18 -18 -18 -17 -17 -17 -17 -16 -16 -16 -16 -16 -17 -17 -17 -17 -17 -17 -17 -17 -17 -17 -17 -16 -16 -15 -14 -14
-19 -19 -19 -19 -19 -18 -18 -18 -18 -18 -18 -18 -17 -17 -17 -17 -16 -17 -16 -16 -16 -17 -17 -17 -17 -17 -17 -17 -17 -17 -17 -17 -17 -17 -16 -16 -15 -14
-18 -18 -18 -18 -18 -18 -18 -18 -18 -18 -18 -17 -17 -17 -17 -17 -17 -16 -16 -16 -16 -16 -17 -17 -17 -17 -17 -17 -16 -17 -17 -17 -17 -17 -16 -16 -16 -15
-18 -18 -18 -18 -18 -18 -18 -18 -17 -17 -17 -17 -17 -17 -17 -17 -17 -16 -16 -16 -16 -16 -17 -17 -17 -17 -17 -17 -17 -16 -16 -17 -17 -17 -17 -16 -16 -16
-18 -18 -18 -18 -18 -18 -18 -17 -17 -17 -17 -17 -17 -17 -17 -17 -16 -16 -16 -16 -16 -16 -17 -17 -17 -17 -17 -17 -17 -17 -16 -16 -16 -16 -16 -17 -16 -16
-18 -18 -18 -18 -18 -18 -17 -17 -18 -17 -17 -17 -17 -17 -17 -16 -16 -16 -16 -16 -16 -16 -16 -16 -17 -17 -17 -17 -16 -16 -17 -16 -16 -16 -16 -17 -17 -17
-18 -18 -18 -18 -18 -18 -18 -18 -17 -17 -17 -17 -16 -16 -16 -16 -16 -16 -16 -16 -16 -16 -16 -16 -17 -17 -17 -17 -17 -16 -16 -16 -16 -16 -16 -16 -16 -17
-18 -18 -18 -18 -18 -18 -19 -18 -17 -17 -17 -17 -17 -16 -16 -16 -16 -16 -16 -16 -16 -16 -16 -16 -16 -17 -17 -17 -17 -17 -16 -16 -16 -16 -16 -16 -17 -17
-18 -18 -18 -18 -18 -18 -18 -18 -18 -17 -17 -17 -17 -17 -16 -16 -16 -16 -16 -16 -16 -16 -16 -16 -16 -17 -17 -17 -17 -17 -17 -16 -16 -16 -16 -16 -17 -17

GFSNE_700_temp_033.txt.gz
Temp
-12 -12 -13 -13 -13 -12 -13 -13 -13 -12 -11 -11 -11 -11 -11 -10 -10 -9 -9 -9 -8 -8 -8 -6 -7 -6 -6 -6 -5 -5 -5 -5 -4 -4 -4 -4 -3 -3
-13 -13 -13 -14 -14 -14 -14 -14 -14 -13 -13 -12 -12 -12 -12 -12 -11 -10 -11 -10 -9 -8 -8 -8 -8 -8 -7 -7 -6 -6 -6 -6 -5 -4 -4 -4 -4 -4
-14 -14 -15 -15 -16 -15 -15 -15 -15 -15 -15 -14 -14 -13 -13 -13 -13 -13 -12 -11 -10 -9 -9 -9 -9 -9 -8 -8 -7 -6 -6 -6 -5 -5 -4 -4 -4 -4
-15 -16 -16 -16 -16 -16 -16 -16 -16 -15 -15 -14 -14 -14 -14 -13 -14 -14 -14 -13 -12 -12 -12 -11 -11 -10 -8 -9 -9 -8 -7 -8 -7 -6 -5 -4 -4 -4
-16 -16 -16 -16 -16 -16 -16 -16 -16 -16 -16 -15 -15 -15 -15 -15 -14 -14 -14 -14 -14 -14 -13 -12 -12 -11 -10 -9 -9 -9 -8 -8 -8 -7 -6 -6 -5 -4
-16 -16 -16 -16 -16 -16 -16 -16 -16 -16 -16 -16 -16 -15 -15 -15 -15 -15 -14 -14 -13 -14 -14 -14 -13 -12 -11 -11 -9 -9 -9 -9 -8 -8 -8 -7 -6 -5
-16 -16 -16 -16 -17 -17 -17 -17 -17 -17 -16 -16 -16 -16 -16 -16 -15 -15 -15 -14 -14 -14 -14 -14 -14 -13 -12 -12 -11 -10 -10 -9 -9 -9 -8 -8 -7 -7
-16 -17 -17 -17 -17 -17 -18 -18 -18 -17 -17 -17 -17 -16 -16 -16 -16 -16 -15 -15 -14 -15 -15 -14 -14 -14 -14 -13 -13 -12 -11 -11 -10 -9 -9 -8 -8 -7
-17 -17 -17 -17 -18 -18 -18 -18 -18 -18 -18 -17 -17 -17 -17 -17 -16 -16 -16 -16 -16 -15 -15 -14 -14 -14 -14 -14 -14 -14 -13 -12 -11 -10 -9 -9 -8 -8
-18 -18 -18 -18 -18 -18 -18 -18 -18 -18 -18 -18 -18 -17 -17 -17 -17 -17 -17 -16 -16 -15 -16 -15 -15 -14 -14 -14 -14 -14 -14 -13 -13 -12 -11 -11 -10 -9
-18 -18 -18 -18 -18 -19 -19 -19 -18 -18 -19 -18 -18 -18 -18 -17 -17 -17 -17 -17 -16 -16 -17 -17 -15 -14 -15 -14 -14 -14 -14 -14 -14 -13 -13 -12 -11 -11
-18 -19 -19 -19 -19 -19 -19 -19 -19 -19 -19 -18 -18 -18 -18 -17 -17 -17 -17 -17 -17 -16 -17 -16 -16 -15 -15 -14 -15 -15 -15 -15 -14 -13 -13 -13 -12 -12
-18 -18 -19 -19 -19 -19 -20 -19 -19 -18 -18 -18 -18 -17 -17 -17 -17 -18 -18 -17 -17 -17 -17 -17 -17 -17 -16 -15 -16 -16 -16 -16 -16 -16 -15 -14 -14 -13
-18 -19 -19 -19 -19 -19 -19 -19 -19 -19 -19 -18 -18 -18 -18 -17 -17 -17 -17 -17 -17 -17 -17 -17 -17 -17 -17 -17 -16 -16 -16 -17 -17 -17 -16 -16 -16 -15
-19 -19 -19 -19 -19 -19 -19 -19 -19 -19 -19 -19 -18 -18 -18 -17 -17 -17 -17 -16 -16 -16 -17 -17 -17 -17 -17 -17 -17 -16 -16 -17 -17 -17 -17 -17 -16 -16
-19 -18 -19 -19 -19 -19 -19 -19 -19 -19 -18 -18 -18 -18 -17 -17 -17 -17 -17 -16 -16 -16 -17 -17 -17 -17 -17 -17 -17 -17 -17 -17 -17 -17 -17 -17 -16 -16
-18 -18 -18 -19 -19 -19 -19 -19 -18 -18 -18 -18 -18 -18 -17 -17 -17 -17 -17 -17 -16 -16 -16 -17 -17 -17 -17 -17 -17 -17 -17 -17 -17 -17 -17 -17 -16 -16
-18 -18 -18 -18 -18 -18 -18 -18 -18 -18 -18 -18 -18 -17 -17 -17 -17 -17 -17 -17 -17 -17 -16 -16 -16 -16 -16 -17 -17 -17 -16 -16 -16 -17 -17 -17 -17 -16
-18 -18 -18 -18 -18 -18 -18 -18 -18 -18 -18 -18 -18 -18 -17 -17 -17 -17 -17 -17 -17 -17 -17 -16 -16 -17 -16 -16 -17 -16 -16 -16 -16 -16 -17 -17 -16 -16
-18 -18 -18 -18 -18 -18 -18 -18 -18 -18 -18 -18 -17 -17 -17 -17 -17 -17 -17 -17 -17 -17 -17 -16 -17 -17 -17 -17 -17 -17 -16 -16 -16 -16 -17 -16 -16 -16
-18 -18 -18 -18 -18 -18 -18 -19 -18 -18 -17 -17 -17 -17 -17 -17 -16 -16 -16 -16 -16 -16 -16 -16 -16 -16 -16 -17 -16 -16 -16 -16 -16 -16 -16 -16 -16 -17
-19 -19 -19 -18 -19 -19 -18 -19 -18 -18 -18 -17 -17 -17 -17 -17 -17 -16 -16 -16 -16 -16 -16 -16 -16 -16 -16 -16 -16 -17 -16 -16 -16 -16 -16 -16 -16 -17
-19 -19 -19 -19 -19 -19 -19 -19 -19 -18 -18 -18 -17 -17 -17 -17 -17 -17 -16 -16 -16 -16 -16 -16 -16 -16 -16 -16 -16 -16 -16 -16 -16 -16 -16 -16 -17 -17

GFSNE_700_temp_036.txt.gz
Temp
-12 -13 -13 -13 -14 -14 -14 -14 -14 -13 -13 -12 -12 -13 -13 -12 -12 -11 -11 -11 -10 -9 -9 -7 -7 -6 -6 -6 -6 -6 -5 -5 -4 -4 -4 -4 -4 -4
-14 -14 -14 -14 -15 -15 -15 -15 -15 -15 -14 -14 -14 -13 -14 -14 -13 -12 -12 -11 -11 -10 -9 -9 -8 -8 -7 -7 -7 -6 -6 -6 -5 -5 -4 -4 -4 -4
-15 -15 -15 -15 -16 -16 -16 -16 -16 -16 -15 -15 -15 -14 -14 -14 -14 -14 -14 -13 -12 -11 -10 -10 -9 -9 -8 -7 -7 -7 -7 -6 -6 -6 -5 -5 -4 -4
-16 -16 -16 -16 -16 -17 -16 -16 -16 -16 -16 -15 -15 -15 -15 -15 -14 -14 -15 -15 -14 -12 -12 -11 -10 -10 -9 -9 -8 -8 -8 -7 -7 -6 -6 -6 -5 -5
-16 -16 -16 -16 -16 -16 -16 -16 -16 -16 -16 -16 -16 -16 -15 -15 -15 -15 -15 -14 -15 -14 -14 -12 -12 -11 -10 -9 -9 -9 -9 -8 -7 -7 -6 -6 -6 -5
-16 -16 -16 -16 -16 -17 -17 -16 -16 -16 -16 -16 -16 -16 -16 -16 -16 -15 -15 -15 -15 -14 -14 -13 -13 -12 -12 -11 -10 -10 -9 -9 -8 -8 -8 -7 -6 -6
-16 -16 -17 -17 -17 -17 -17 -17 -17 -17 -17 -17 -17 -17 -17 -17 -17 -16 -15 -15 -15 -15 -14 -14 -14 -13 -12 -11 -10 -10 -10 -10 -10 -9 -9 -8 -7 -7
-16 -17 -17 -17 -17 -18 -18 -18 -18 -18 -18 -18 -17 -17 -17 -17 -17 -17 -16 -16 -15 -15 -15 -14 -14 -14 -13 -12 -12 -11 -10 -10 -10 -9 -9 -9 -8 -8
-17 -17 -17 -18 -18 -18 -18 -18 -18 -18 -18 -18 -18 -17 -17 -17 -17 -17 -16 -16 -16 -15 -15 -14 -14 -14 -14 -14 -13 -12 -11 -11 -10 -10 -9 -9 -9 -8
-17 -18 -18 -18 -18 -18 -19 -19 -19 -19 -19 -19 -18 -18 -18 -17 -17 -17 -17 -17 -16 -16 -16 -14 -15 -14 -15 -14 -14 -13 -13 -12 -11 -11 -10 -10 -10 -9
-17 -18 -18 -18 -19 -19 -19 -19 -19 -19 -20 -19 -19 -18 -18 -18 -18 -18 -17 -17 -16 -16 -17 -16 -15 -15 -14 -14 -14 -14 -14 -14 -13 -13 -12 -12 -11 -10
-17 -18 -18 -18 -18 -19 -19 -19 -19 -19 -19 -19 -19 -19 -19 -18 -18 -18 -17 -17 -18 -17 -17 -16 -16 -15 -14 -14 -14 -14 -14 -14 -14 -14 -13 -13 -12 -12
-17 -18 -18 -18 -19 -19 -19 -20 -19 -19 -19 -19 -19 -18 -18 -18 -18 -18 -18 -18 -17 -17 -17 -16 -16 -16 -15 -15 -15 -15 -15 -15 -14 -14 -14 -14 -13 -13
-18 -18 -18 -19 -19 -19 -19 -19 -20 -20 -20 -19 -19 -19 -19 -18 -18 -18 -18 -18 -17 -17 -17 -16 -15 -16 -16 -15 -16 -16 -16 -15 -15 -15 -15 -15 -15 -14
-18 -18 -18 -19 -19 -19 -19 -19 -19 -20 -20 -20 -19 -19 -19 -18 -18 -18 -18 -17 -17 -17 -16 -16 -16 -16 -16 -16 -16 -16 -16 -16 -16 -16 -16 -17 -16 -16
-18 -18 -18 -18 -19 -19 -19 -19 -19 -19 -19 -19 -19 -18 -18 -18 -18 -18 -18 -17 -17 -16 -17 -16 -17 -17 -17 -17 -17 -17 -17 -16 -16 -16 -17 -17 -17 -17
-18 -18 -18 -18 -18 -18 -19 -18 -19 -19 -19 -18 -18 -18 -18 -18 -18 -17 -17 -17 -17 -17 -16 -16 -17 -17 -17 -17 -17 -17 -17 -17 -17 -16 -16 -16 -17 -17
-18 -18 -18 -18 -18 -18 -18 -18 -18 -19 -18 -18 -18 -18 -18 -18 -18 -17 -17 -17 -17 -17 -17 -17 -16 -16 -17 -17 -16 -16 -16 -16 -16 -16 -17 -17 -17 -17
-18 -18 -18 -18 -18 -18 -18 -18 -18 -18 -18 -18 -18 -18 -18 -18 -17 -17 -17 -17 -17 -17 -16 -17 -17 -17 -17 -17 -17 -17 -17 -16 -16 -16 -16 -17 -17 -17
-18 -18 -18 -18 -18 -18 -19 -19 -19 -18 -18 -18 -18 -18 -18 -18 -17 -17 -17 -17 -17 -17 -17 -17 -17 -16 -16 -16 -17 -17 -17 -16 -16 -16 -16 -16 -16 -17
-18 -19 -19 -19 -19 -19 -19 -19 -19 -18 -18 -18 -18 -18 -18 -18 -17 -17 -17 -17 -17 -17 -17 -16 -16 -16 -16 -16 -16 -16 -17 -16 -16 -16 -16 -16 -16 -16
-19 -19 -19 -19 -19 -19 -19 -19 -19 -19 -18 -18 -18 -18 -17 -17 -17 -17 -17 -17 -17 -16 -16 -17 -17 -16 -16 -16 -16 -16 -16 -16 -16 -16 -16 -16 -16 -16
-19 -19 -19 -19 -19 -19 -19 -19 -19 -19 -19 -18 -18 -18 -18 -17 -17 -17 -17 -17 -16 -16 -16 -16 -16 -16 -16 -17 -16 -17 -17 -17 -17 -16 -16 -16 -16 -16

GFSNE_700_temp_039.txt.gz
Temp
-13 -14 -14 -14 -14 -14 -15 -15 -15 -15 -14 -13 -13 -14 -14 -14 -14 -13 -12 -12 -11 -11 -10 -9 -9 -8 -7 -7 -6 -5 -5 -5 -5 -5 -5 -5 -5 -4
-14 -15 -15 -15 -15 -16 -16 -16 -16 -16 -15 -15 -14 -14 -15 -14 -14 -14 -14 -13 -12 -12 -12 -11 -10 -9 -9 -8 -7 -6 -6 -6 -5 -6 -6 -6 -5 -5
-15 -15 -15 -16 -16 -16 -16 -17 -16 -17 -16 -16 -16 -15 -15 -15 -15 -14 -14 -14 -14 -13 -12 -12 -11 -10 -9 -9 -9 -7 -7 -6 -6 -6 -6 -6 -6 -5
-15 -15 -15 -16 -16 -16 -16 -16 -17 -17 -16 -16 -16 -16 -16 -15 -15 -15 -15 -15 -15 -14 -13 -12 -12 -11 -11 -10 -9 -9 -8 -7 -6 -7 -6 -6 -6 -5
-15 -16 -16 -16 -16 -16 -16 -16 -16 -17 -17 -17 -16 -16 -16 -16 -16 -16 -15 -15 -15 -15 -14 -13 -12 -12 -12 -12 -11 -10 -9 -8 -7 -7 -7 -7 -7 -6
-16 -16 -16 -16 -16 -16 -16 -17 -17 -17 -17 -17 -17 -17 -17 -17 -16 -16 -16 -16 -15 -15 -15 -14 -14 -13 -12 -13 -12 -11 -11 -9 -9 -8 -8 -7 -7 -7
-16 -16 -16 -16 -17 -17 -17 -17 -17 -17 -17 -18 -18 -18 -17 -17 -17 -17 -17 -17 -16 -15 -15 -15 -14 -14 -14 -12 -12 -11 -11 -11 -10 -9 -8 -8 -8 -7
-16 -16 -17 -17 -17 -17 -18 -18 -18 -18 -18 -18 -18 -18 -18 -18 -18 -18 -17 -17 -17 -16 -15 -15 -14 -14 -14 -13 -13 -12 -12 -11 -10 -10 -10 -9 -8 -8
-17 -17 -17 -17 -17 -18 -18 -18 -19 -19 -19 -19 -18 -18 -18 -18 -18 -18 -18 -17 -17 -16 -16 -15 -15 -14 -14 -14 -13 -13 -13 -12 -11 -11 -10 -9 -9 -8
-17 -17 -17 -17 -18 -18 -18 -18 -19 -19 -19 -20 -20 -19 -19 -18 -18 -18 -18 -17 -17 -16 -16 -15 -15 -15 -15 -14 -14 -13 -12 -12 -11 -11 -11 -10 -10 -9
-17 -17 -17 -17 -18 -18 -18 -19 -19 -19 -20 -20 -20 -19 -19 -19 -19 -19 -18 -18 -17 -17 -17 -16 -15 -15 -15 -15 -14 -14 -13 -12 -12 -12 -12 -11 -10 -10
-17 -17 -17 -18 -18 -18 -19 -19 -19 -19 -20 -20 -20 -20 -19 -19 -19 -19 -18 -18 -18 -17 -17 -17 -16 -15 -15 -15 -14 -14 -13 -13 -13 -12 -12 -11 -11 -11
-17 -17 -18 -18 -18 -19 -19 -19 -19 -20 -20 -20 -20 -20 -19 -19 -19 -18 -18 -18 -18 -17 -18 -17 -17 -17 -16 -15 -16 -15 -14 -14 -13 -13 -13 -13 -13 -12
-17 -17 -18 -18 -18 -19 -19 -19 -19 -20 -20 -20 -21 -20 -20 -20 -19 -19 -18 -18 -18 -18 -18 -17 -17 -17 -16 -16 -16 -16 -15 -14 -15 -15 -15 -15 -14 -14
-17 -18 -18 -18 -18 -18 -19 -19 -19 -19 -20 -20 -20 -20 -20 -19 -19 -19 -18 -18 -18 -18 -18 -17 -17 -17 -17 -16 -16 -17 -16 -16 -16 -16 -16 -15 -15 -15
-17 -18 -18 -18 -18 -18 -18 -19 -19 -19 -19 -19 -19 -19 -19 -19 -19 -18 -18 -18 -18 -17 -17 -17 -17 -17 -17 -17 -17 -17 -16 -16 -16 -16 -16 -16 -16 -16
-18 -18 -18 -18 -18 -18 -18 -18 -19 -19 -19 -19 -19 -19 -19 -19 -18 -18 -18 -18 -18 -17 -17 -17 -17 -17 -17 -17 -17 -17 -16 -16 -16 -16 -16 -16 -16 -16
-18 -18 -18 -18 -18 -18 -19 -19 -19 -19 -19 -19 -19 -18 -18 -18 -18 -18 -18 -18 -17 -17 -17 -17 -17 -17 -17 -17 -17 -17 -17 -17 -16 -16 -16 -16 -16 -17
-18 -18 -18 -18 -19 -19 -19 -19 -19 -19 -18 -18 -19 -19 -19 -19 -18 -18 -18 -18 -18 -17 -17 -17 -17 -17 -17 -17 -17 -17 -17 -17 -16 -16 -16 -16 -16 -17
-18 -18 -19 -19 -19 -19 -19 -19 -19 -19 -19 -18 -18 -18 -19 -19 -18 -18 -17 -17 -17 -17 -17 -17 -17 -17 -17 -17 -17 -17 -17 -17 -16 -16 -16 -16 -16 -17
-18 -18 -19 -19 -19 -19 -19 -19 -19 -19 -19 -18 -18 -18 -18 -18 -18 -18 -17 -17 -17 -17 -17 -17 -17 -17 -17 -16 -16 -17 -16 -16 -16 -16 -16 -16 -16 -16
-18 -18 -19 -19 -19 -19 -19 -20 -19 -19 -19 -18 -18 -18 -18 -18 -18 -18 -17 -17 -17 -17 -17 -17 -17 -16 -16 -16 -16 -16 -16 -17 -17 -17 -16 -16 -16 -16
-18 -18 -19 -19 -19 -19 -19 -20 -20 -20 -19 -19 -19 -18 -18 -18 -18 -17 -17 -17 -17 -17 -17 -16 -17 -16 -16 -16 -16 -16 -16 -17 -17 -17 -17 -17 -16 -16